Weather History for KATP - December, 2013

Change the Weather History Date:

Tuesday, December 17, 2013

  Actual Average Record
Temperature  
Mean Temperature 65 °F -  
Max Temperature 68 °F - - ()
Min Temperature 62 °F - - ()
Growing Degree Days 15 (Base 50)    
Moisture  
Dew Point 50 °F    
Average Humidity 58    
Maximum Humidity 64    
Minimum Humidity 52    
Precipitation  
Precipitation 0.00 in - - ()
Sea Level Pressure  
Sea Level Pressure 30.34 in    
Wind  
Wind Speed 6 mph (North)    
Max Wind Speed 12 mph    
Max Gust Speed 16 mph    
Visibility 9 miles    
Events      
T = Trace of Precipitation, MM = Missing Value Source: NWS Daily Summary

Daily Weather History Graph

Daily Weather History Graph

Search for Another Location

Airport or City:

Trip Planner

Search our weather history database for the weather conditions in past years. The results will help you decide how hot, cold, wet, or windy it might be!

Date:

Astronomy

Dec. 17, 2013 Rise Set
Actual Time 6:43 AM CST 5:09 PM CST
Civil Twilight 6:17 AM CST 5:34 PM CST
Nautical Twilight 5:48 AM CST 6:04 PM CST
Astronomical Twilight 5:20 AM CST 6:32 PM CST
Moon 5:43 PM CST (12/17) 6:44 AM CST (12/17)
Length of Visible Light 11h 17m
Length of Day
10h 25m
Full, 100% of the Moon is Illuminated
Dec 17
Full
Dec 25
Last Quarter
Jan 1
New
Jan 7
First Quarter
Jan 15
Full

Hourly Weather History & Observations

Time (CST) Temp. Dew Point Humidity Pressure Visibility Wind Dir Wind Speed Gust Speed Precip Events Conditions
12:15 AM 62.6 °F 50.0 °F 63% 30.34 in 9.0 mi North 4.6 mph - N/A   Overcast
12:35 AM 64.4 °F 50.0 °F 59% 30.33 in 9.0 mi Calm Calm - N/A   Overcast
12:55 AM 64.4 °F 50.0 °F 59% 30.33 in 9.0 mi NE 6.9 mph - N/A   Overcast
1:15 AM 62.6 °F 50.0 °F 63% 30.33 in 8.0 mi Variable 6.9 mph - N/A   Overcast
1:35 AM 64.4 °F 50.0 °F 59% 30.33 in 9.0 mi ENE 3.5 mph - N/A   Mostly Cloudy
1:55 AM 64.4 °F 50.0 °F 59% 30.33 in 8.0 mi North 4.6 mph - N/A   Mostly Cloudy
2:15 AM 64.4 °F 50.0 °F 59% 30.33 in 9.0 mi North 6.9 mph - N/A   Mostly Cloudy
2:35 AM 64.4 °F 50.0 °F 59% 30.33 in 9.0 mi East 10.4 mph - N/A   Overcast
2:55 AM 64.4 °F 50.0 °F 59% 30.32 in 9.0 mi Variable 4.6 mph - N/A   Overcast
3:15 AM 64.4 °F 50.0 °F 59% 30.32 in 8.0 mi East 10.4 mph - N/A   Overcast
3:35 AM 64.4 °F 50.0 °F 59% 30.32 in 9.0 mi East 6.9 mph - N/A   Mostly Cloudy
3:55 AM 64.4 °F 50.0 °F 59% 30.31 in 9.0 mi NE 4.6 mph - N/A   Scattered Clouds
4:15 AM 64.4 °F 50.0 °F 59% 30.31 in 8.0 mi Variable 3.5 mph - N/A   Mostly Cloudy
4:35 AM 64.4 °F 50.0 °F 59% 30.31 in 8.0 mi ENE 4.6 mph - N/A   Mostly Cloudy
4:55 AM 64.4 °F 50.0 °F 59% 30.31 in 9.0 mi East 6.9 mph - N/A   Mostly Cloudy
5:15 AM 64.4 °F 50.0 °F 59% 30.31 in 9.0 mi East 6.9 mph - N/A   Mostly Cloudy
5:35 AM 64.4 °F 50.0 °F 59% 30.31 in 9.0 mi Variable 5.8 mph - N/A   Overcast
5:55 AM 64.4 °F 50.0 °F 59% 30.32 in 9.0 mi ENE 5.8 mph - N/A   Mostly Cloudy
6:15 AM 64.4 °F 50.0 °F 59% 30.33 in 9.0 mi North 4.6 mph - N/A   Mostly Cloudy
6:35 AM 64.4 °F 50.0 °F 59% 30.33 in 9.0 mi Variable 3.5 mph - N/A   Mostly Cloudy
6:55 AM 64.4 °F 50.0 °F 59% 30.34 in 9.0 mi North 5.8 mph - N/A   Overcast
7:15 AM 64.4 °F 50.0 °F 59% 30.35 in 9.0 mi NNW 6.9 mph - N/A   Overcast
7:35 AM 64.4 °F 50.0 °F 59% 30.36 in 8.0 mi NNW 5.8 mph - N/A   Overcast
7:55 AM 66.2 °F 50.0 °F 56% 30.37 in 9.0 mi NNW 6.9 mph - N/A   Overcast
8:15 AM 66.2 °F 50.0 °F 56% 30.37 in 8.0 mi Variable 6.9 mph - N/A   Overcast
8:35 AM 66.2 °F 50.0 °F 56% 30.38 in 9.0 mi NNW 8.1 mph - N/A   Overcast
8:55 AM 66.2 °F 50.0 °F 56% 30.39 in 9.0 mi NNW 6.9 mph - N/A   Overcast
9:15 AM 66.2 °F 50.0 °F 56% 30.39 in 9.0 mi NNW 9.2 mph - N/A   Overcast
9:35 AM 66.2 °F 50.0 °F 56% 30.40 in 7.0 mi NW 10.4 mph - N/A   Overcast
9:55 AM 66.2 °F 48.2 °F 52% 30.40 in 6.0 mi North 8.1 mph - N/A   Haze
10:15 AM 66.2 °F 48.2 °F 52% 30.40 in 9.0 mi North 4.6 mph - N/A   Overcast
10:35 AM 66.2 °F 50.0 °F 56% 30.39 in 9.0 mi North 8.1 mph - N/A   Overcast
10:55 AM 66.2 °F 50.0 °F 56% 30.38 in 8.0 mi North 8.1 mph - N/A   Overcast
11:15 AM 66.2 °F 50.0 °F 56% 30.37 in 9.0 mi North 8.1 mph 16.1 mph N/A   Overcast
11:35 AM 66.2 °F 50.0 °F 56% 30.37 in 9.0 mi NNW 10.4 mph - N/A   Overcast
11:55 AM 66.2 °F 48.2 °F 52% 30.36 in 9.0 mi NNW 8.1 mph 13.8 mph N/A   Mostly Cloudy
12:15 PM 68.0 °F 50.0 °F 52% 30.35 in 9.0 mi NNW 8.1 mph - N/A   Partly Cloudy
12:35 PM 66.2 °F 50.0 °F 56% 30.34 in 8.0 mi NNE 6.9 mph - N/A   Partly Cloudy
12:55 PM 66.2 °F 50.0 °F 56% 30.33 in 9.0 mi NNW 6.9 mph - N/A   Scattered Clouds
1:15 PM 66.2 °F 50.0 °F 56% 30.32 in 8.0 mi NE 6.9 mph - N/A   Mostly Cloudy
1:35 PM 66.2 °F 50.0 °F 56% 30.31 in 9.0 mi NNE 10.4 mph - N/A   Scattered Clouds
1:55 PM 66.2 °F 48.2 °F 52% 30.31 in 9.0 mi NNE 6.9 mph - N/A   Partly Cloudy
2:15 PM 66.2 °F 50.0 °F 56% 30.31 in 9.0 mi Variable 5.8 mph - N/A   Clear
2:35 PM 66.2 °F 50.0 °F 56% 30.31 in 9.0 mi ENE 5.8 mph - N/A   Clear
2:55 PM 66.2 °F 50.0 °F 56% 30.31 in 9.0 mi Variable 5.8 mph - N/A   Partly Cloudy
3:15 PM 66.2 °F 50.0 °F 56% 30.31 in 8.0 mi North 5.8 mph - N/A   Partly Cloudy
3:35 PM 66.2 °F 50.0 °F 56% 30.31 in 8.0 mi North 8.1 mph - N/A   Clear
3:55 PM 66.2 °F 50.0 °F 56% 30.31 in 9.0 mi North 6.9 mph - N/A   Mostly Cloudy
4:15 PM 66.2 °F 51.8 °F 60% 30.31 in 9.0 mi NE 5.8 mph - N/A   Scattered Clouds
4:35 PM 66.2 °F 51.8 °F 60% 30.31 in 9.0 mi NNE 8.1 mph - N/A   Mostly Cloudy
4:55 PM 66.2 °F 51.8 °F 60% 30.31 in 8.0 mi NNE 9.2 mph - N/A   Scattered Clouds
5:15 PM 66.2 °F 51.8 °F 60% 30.31 in 9.0 mi Variable 4.6 mph - N/A   Partly Cloudy
5:35 PM 66.2 °F 51.8 °F 60% 30.31 in 9.0 mi NNE 6.9 mph - N/A   Partly Cloudy
5:55 PM 66.2 °F 51.8 °F 60% 30.32 in 8.0 mi Variable 6.9 mph - N/A   Mostly Cloudy
6:15 PM 64.4 °F 51.8 °F 64% 30.33 in 9.0 mi North 11.5 mph - N/A   Overcast
6:35 PM 64.4 °F 51.8 °F 64% 30.33 in 9.0 mi NNW 11.5 mph - N/A   Mostly Cloudy
6:55 PM 64.4 °F 50.0 °F 59% 30.33 in 8.0 mi NNE 10.4 mph - N/A   Mostly Cloudy
7:15 PM 64.4 °F 50.0 °F 59% 30.34 in 9.0 mi NNE 8.1 mph 13.8 mph N/A   Mostly Cloudy
7:35 PM 64.4 °F 50.0 °F 59% 30.35 in 9.0 mi NNE 9.2 mph - N/A   Overcast
7:55 PM 64.4 °F 50.0 °F 59% 30.35 in 9.0 mi North 8.1 mph - N/A   Mostly Cloudy
8:15 PM 64.4 °F 51.8 °F 64% 30.36 in 9.0 mi NNW 9.2 mph - N/A   Mostly Cloudy
8:35 PM 64.4 °F 51.8 °F 64% 30.36 in 9.0 mi North 9.2 mph - N/A   Mostly Cloudy
8:55 PM 64.4 °F 50.0 °F 59% 30.36 in 9.0 mi North 8.1 mph - N/A   Scattered Clouds
9:15 PM 64.4 °F 50.0 °F 59% 30.36 in 9.0 mi NNW 6.9 mph - N/A   Mostly Cloudy
9:35 PM 64.4 °F 50.0 °F 59% 30.37 in 9.0 mi NE 6.9 mph - N/A   Mostly Cloudy
9:55 PM 64.4 °F 51.8 °F 64% 30.37 in 9.0 mi NNW 8.1 mph - N/A   Mostly Cloudy
10:15 PM 64.4 °F 50.0 °F 59% 30.37 in 9.0 mi NNW 5.8 mph - N/A   Scattered Clouds
10:35 PM 64.4 °F 50.0 °F 59% 30.37 in 9.0 mi NNE 8.1 mph - N/A   Scattered Clouds
10:55 PM 64.4 °F 50.0 °F 59% 30.37 in 9.0 mi North 6.9 mph - N/A   Scattered Clouds
11:15 PM 64.4 °F 50.0 °F 59% 30.36 in 9.0 mi NW 5.8 mph - N/A   Scattered Clouds
11:35 PM 64.4 °F 51.8 °F 64% 30.36 in 9.0 mi NNE 5.8 mph - N/A   Scattered Clouds
11:55 PM 64.4 °F 50.0 °F 59% 30.36 in 9.0 mi North 4.6 mph - N/A   Partly Cloudy